Time,TemperatureF,DewpointF,PressureIn,WindDirection,WindDirectionDegrees,WindSpeedMPH,WindSpeedGustMPH,Humidity,HourlyPrecipIn,Conditions,Clouds,dailyrainin,SoftwareType,DateUTC
2013-02-11 00:02:00,32.0,-99.9,29.38,North,-999,-999.0,-999.0,-999,-99.99,,,-99.99,,2013-02-11 06:02:00,
2013-02-11 00:12:00,32.0,-99.9,29.37,North,-999,-999.0,-999.0,-999,-99.99,,,-99.99,,2013-02-11 06:12:00,
2013-02-11 00:22:00,33.0,-99.9,29.37,NE,49,15.0,23.0,-999,-99.99,,,-99.99,,2013-02-11 06:22:00,
2013-02-11 00:32:00,33.0,-99.9,29.37,North,-999,-999.0,-999.0,-999,-99.99,,,-99.99,,2013-02-11 06:32:00,
2013-02-11 00:42:00,33.0,-99.9,29.37,North,-999,-999.0,-999.0,-999,-99.99,,,-99.99,,2013-02-11 06:42:00,
2013-02-11 00:52:00,33.0,-99.9,29.37,North,-999,-999.0,-999.0,-999,-99.99,,,-99.99,,2013-02-11 06:52:00,
2013-02-11 01:02:00,33.0,-99.9,29.38,North,-999,-999.0,-999.0,-999,-99.99,,,-99.99,,2013-02-11 07:02:00,
2013-02-11 01:12:00,33.0,-99.9,29.38,North,-999,-999.0,-999.0,-999,-99.99,,,-99.99,,2013-02-11 07:12:00,
2013-02-11 01:22:00,33.0,-99.9,29.38,NE,39,10.0,13.0,-999,-99.99,,,-99.99,,2013-02-11 07:22:00,
2013-02-11 01:32:00,33.0,-99.9,29.39,North,-999,-999.0,-999.0,-999,-99.99,,,-99.99,,2013-02-11 07:32:00,
2013-02-11 01:42:00,33.0,-99.9,29.39,NNE,29,6.0,9.0,-999,-99.99,,,-99.99,,2013-02-11 07:42:00,
2013-02-11 01:52:00,33.0,-99.9,29.39,North,-999,-999.0,-999.0,-999,-99.99,,,-99.99,,2013-02-11 07:52:00,
2013-02-11 02:01:00,33.0,-99.9,29.39,North,-999,-999.0,-999.0,-999,-99.99,,,-99.99,,2013-02-11 08:01:00,
2013-02-11 02:11:00,33.0,-99.9,29.39,North,-999,-999.0,-999.0,-999,-99.99,,,-99.99,,2013-02-11 08:11:00,
2013-02-11 02:22:00,33.0,-99.9,29.40,North,-999,-999.0,-999.0,-999,-99.99,,,-99.99,,2013-02-11 08:22:00,
2013-02-11 02:32:00,33.0,-99.9,29.40,North,-999,-999.0,-999.0,-999,-99.99,,,-99.99,,2013-02-11 08:32:00,
2013-02-11 02:42:00,33.0,-99.9,29.40,North,-999,-999.0,-999.0,-999,-99.99,,,-99.99,,2013-02-11 08:42:00,
2013-02-11 02:52:00,33.0,-99.9,29.40,NNE,24,4.0,7.0,-999,-99.99,,,-99.99,,2013-02-11 08:52:00,
2013-02-11 03:02:00,33.0,-99.9,29.40,North,-999,-999.0,-999.0,-999,-99.99,,,-99.99,,2013-02-11 09:02:00,
2013-02-11 03:12:00,32.0,-99.9,29.41,North,-999,-999.0,-999.0,-999,-99.99,,,-99.99,,2013-02-11 09:12:00,
2013-02-11 03:22:00,-999.0,-99.9,29.41,NNW,337,8.0,14.0,-999,-99.99,,,-99.99,,2013-02-11 09:22:00,
2013-02-11 03:42:00,32.0,-99.9,29.41,NNW,344,8.0,14.0,-999,-99.99,,,-99.99,,2013-02-11 09:42:00,
2013-02-11 04:22:00,31.0,-99.9,29.42,NNW,329,13.0,19.0,-999,-99.99,,,-99.99,,2013-02-11 10:22:00,
2013-02-11 04:52:00,31.0,-99.9,29.44,NW,324,18.0,27.0,-999,-99.99,,,-99.99,,2013-02-11 10:52:00,
2013-02-11 05:11:00,30.0,-99.9,29.46,NNW,327,17.0,23.0,-999,-99.99,,,-99.99,,2013-02-11 11:11:00,
2013-02-11 05:52:00,29.0,-99.9,29.47,NNW,329,16.0,27.0,-999,-99.99,,,-99.99,,2013-02-11 11:52:00,
2013-02-11 06:22:00,29.0,-99.9,29.49,NW,325,14.0,28.0,-999,-99.99,,,-99.99,,2013-02-11 12:22:00,
2013-02-11 06:43:00,28.0,-99.9,29.49,NW,326,20.0,27.0,-999,-99.99,,,-99.99,,2013-02-11 12:43:00,
2013-02-11 07:52:00,27.0,-99.9,29.57,NNE,25,4.0,9.0,-999,-99.99,,,-99.99,,2013-02-11 13:52:00,
2013-02-11 08:12:00,27.0,-99.9,29.58,NNW,344,3.0,11.0,-999,-99.99,,,-99.99,,2013-02-11 14:12:00,
2013-02-11 09:22:00,27.0,-99.9,29.62,NW,324,4.0,8.0,-999,-99.99,,,-99.99,,2013-02-11 15:22:00,
2013-02-11 09:52:00,26.0,-99.9,29.64,WNW,294,7.0,16.0,-999,-99.99,,,-99.99,,2013-02-11 15:52:00,
2013-02-11 10:53:00,27.0,-99.9,29.67,NW,304,12.0,20.0,-999,-99.99,,,-99.99,,2013-02-11 16:53:00,
2013-02-11 11:22:00,26.0,-99.9,29.69,WNW,299,11.0,15.0,-999,-99.99,,,-99.99,,2013-02-11 17:22:00,
2013-02-11 12:22:00,27.0,-99.9,29.71,NW,307,19.0,28.0,-999,-99.99,,,-99.99,,2013-02-11 18:22:00,
2013-02-11 12:42:00,28.0,-99.9,29.72,NW,316,8.0,18.0,-999,-99.99,,,-99.99,,2013-02-11 18:42:00,
2013-02-11 13:52:00,26.0,-99.9,29.75,WNW,293,13.0,27.0,-999,-99.99,,,-99.99,,2013-02-11 19:52:00,
2013-02-11 14:12:00,26.0,-99.9,29.76,NW,305,17.0,21.0,-999,-99.99,,,-99.99,,2013-02-11 20:12:00,
2013-02-11 14:52:00,27.0,-99.9,29.78,WNW,300,8.0,18.0,-999,-99.99,,,-99.99,,2013-02-11 20:52:00,
2013-02-11 15:22:00,27.0,-99.9,29.80,WNW,302,13.0,25.0,-999,-99.99,,,-99.99,,2013-02-11 21:22:00,
2013-02-11 15:42:00,27.0,-99.9,29.80,WNW,297,15.0,24.0,-999,-99.99,,,-99.99,,2013-02-11 21:42:00,
2013-02-11 16:22:00,26.0,-99.9,29.83,WNW,298,9.0,18.0,-999,-99.99,,,-99.99,,2013-02-11 22:22:00,
2013-02-11 16:52:00,26.0,-99.9,29.85,WNW,287,14.0,19.0,-999,-99.99,,,-99.99,,2013-02-11 22:52:00,
2013-02-11 17:12:00,26.0,-99.9,29.85,NW,309,16.0,20.0,-999,-99.99,,,-99.99,,2013-02-11 23:12:00,
2013-02-11 18:22:00,25.0,-99.9,29.87,NW,314,19.0,27.0,-999,-99.99,,,-99.99,,2013-02-12 00:22:00,
2013-02-11 18:43:00,25.0,-99.9,29.88,WNW,298,13.0,22.0,-999,-99.99,,,-99.99,,2013-02-12 00:43:00,
2013-02-11 19:52:00,24.0,-99.9,29.90,WSW,239,8.0,15.0,-999,-99.99,,,-99.99,,2013-02-12 01:52:00,
2013-02-11 20:12:00,24.0,-99.9,29.91,WSW,253,3.0,9.0,-999,-99.99,,,-99.99,,2013-02-12 02:12:00,
2013-02-11 21:21:00,24.0,-99.9,29.94,SW,224,5.0,10.0,-999,-99.99,,,-99.99,,2013-02-12 03:21:00,
2013-02-11 21:42:00,24.0,-99.9,29.94,West,266,4.0,9.0,-999,-99.99,,,-99.99,,2013-02-12 03:42:00,
2013-02-11 22:52:00,23.0,-99.9,29.96,SW,231,6.0,8.0,-999,-99.99,,,-99.99,,2013-02-12 04:52:00,
2013-02-11 23:11:00,23.0,-99.9,29.97,WSW,241,7.0,9.0,-999,-99.99,,,-99.99,,2013-02-12 05:11:00,
2013-02-11 23:52:00,23.0,-99.9,29.97,WSW,241,5.0,8.0,-999,-99.99,,,-99.99,,2013-02-12 05:52:00,